Home > Weather > Hofheim am Taunus > Past weeks

Flag for Germany Past Weather in Hofheim am Taunus, Hesse, Germany — Yesterday and Last 2 Weeks

Now
51 °F

Fog.


Feels Like: 51 °F
Forecast: 55 / 70 °F
Wind: 2 mph from South

Location: Wiesbaden Airport

Current Time: May 26, 2016 at 9:09:05 AM

Latest Report: May 26, 2016 at 7:58 AM


Visibility: 6 mi

Pressure: 30.03 "Hg

Humidity: 91%

Dew Point: 49 °F

Location of Hofheim am TaunusLocation

Past Weather in Hofheim am Taunus — Graph

°F

Hofheim am Taunus Temperature Yesterday

Maximum temperature yesterday: 59 °F (at 7:58 PM)
Minimum temperature yesterday: 48 °F (at 11:58 PM)
Average temperature yesterday: 54 °F

High & Low Weather Summary for the Past Weeks

 TemperatureHumidityPressure
High77 °F (May 22, 2:58 PM)100% (May 26, 6:04 AM)30.15 "Hg (May 26, 6:04 AM)
Low42 °F (May 15, 3:58 AM)31% (May 11, 4:55 PM)29.46 "Hg (May 12, 5:55 AM)
Average56 °F68%29.90 "Hg
* Reported May 11 7:03 AM — May 26 7:58 AM, Hofheim am Taunus, Weather by CustomWeather, © 2016

Note: Actual official high and low records may vary slightly from our data, if they occured in-between our weather recording intervals... More about our weather records

Advertising

Hofheim am Taunus Weather History for the Previous 24 Hours

Scroll right to see more
 ConditionsComfort  
Time TempWeatherWind HumidityBarometerVisibility
7:58 AM
Thu, May 26
51 °FFog.2 mph91%30.03 "Hg6 mi
6:58 AM46 °FSunny.No wind93%30.03 "HgN/A
6:04 AM45 °FFog.No wind100%30.02 "Hg3 mi
5:59 AM45 °FFog.No wind93%30.01 "Hg2 mi
4:58 AM46 °FClear.1 mph94%30.02 "HgN/A
3:58 AM45 °FFog.3 mph93%30.02 "Hg6 mi
2:58 AM46 °FClear.No wind92%30.02 "HgN/A
1:58 AM46 °FClear.3 mph93%30.03 "HgN/A
12:58 AM46 °FClear.No wind93%30.02 "HgN/A
11:58 PM
Wed, May 25
48 °FClear.No wind94%30.02 "HgN/A
10:58 PM52 °FClear.No wind88%30.02 "HgN/A
9:58 PM54 °FSunny.No wind83%30.01 "HgN/A
8:58 PM57 °FSunny.No wind77%30.00 "HgN/A
7:58 PM59 °FOvercast.No wind72%29.98 "HgN/A
6:58 PM58 °FOvercast.1 mph74%29.98 "HgN/A
5:58 PM58 °FOvercast.2 mph74%30.00 "HgN/A
4:58 PM58 °FOvercast.3 mph74%30.00 "HgN/A
3:58 PM58 °FOvercast.1 mph72%30.00 "HgN/A
2:58 PM57 °FOvercast.2 mph72%30.00 "HgN/A
1:58 PM57 °FOvercast.1 mph72%30.00 "HgN/A
12:58 PM56 °FOvercast.3 mph76%30.00 "HgN/A
11:58 AM55 °FOvercast.5 mph77%30.00 "HgN/A
10:58 AM55 °FPartly sunny.3 mph76%30.00 "HgN/A
9:58 AM54 °FPartly sunny.No wind77%30.00 "HgN/A
Weather by CustomWeather, © 2016

See weather overviewHow to use our weather pages